DW3501 Weather Reports


time (UTC)temp
C
wind
direction
speed
KPH
gust
KPH
rain 1hr
cm
rain 24hr
cm
rain mn
cm
humidity
%
barometer
mb
20260503051019 0 294 0.0 8.0 0.00 0.00 0.00 86 1011.9
20260503050514 0 294 0.0 3.2 0.00 0.00 0.00 86 1012.1
20260503050012 0 294 1.6 3.2 0.00 0.00 0.00 86 1011.8
20260503045509 0 294 1.6 3.2 0.00 0.00 0.00 85 1011.9
20260503045006 0 294 1.6 1.6 0.00 0.00 0.00 85 1012.1
20260503044503 0 293 0.0 0.0 0.00 0.00 0.00 85 1012.0
20260503044000 0 294 1.6 3.2 0.00 0.00 0.00 85 1012.1
20260503043456 0 294 1.6 1.6 0.00 0.00 0.00 85 1012.1
20260503042953 0 293 1.6 1.6 0.00 0.00 0.00 85 1012.1
20260503042450 0 294 0.0 0.0 0.00 0.00 0.00 85 1012.2
20260503041946 0 294 1.6 1.6 0.00 0.00 0.00 85 1012.0
20260503041443 0 294 0.0 0.0 0.00 0.00 0.00 84 1012.2
20260503040941 0 294 0.0 0.0 0.00 0.00 0.00 84 1012.2
20260503040438 0 293 0.0 1.6 0.00 0.00 0.00 84 1011.9
20260503035935 0 293 0.0 1.6 0.00 0.13 0.13 84 1012.2
20260503035432 0 293 0.0 1.6 0.00 0.13 0.13 83 1012.2
20260503034930 0 294 3.2 4.8 0.00 0.13 0.13 82 1012.2
20260503034427 0 294 1.6 3.2 0.00 0.13 0.13 82 1012.4
20260503033924 0 293 0.0 1.6 0.00 0.13 0.13 82 1012.2
20260503033421 1 293 0.0 0.0 0.00 0.13 0.13 81 1012.1
20260503032919 1 293 0.0 0.0 0.00 0.13 0.13 81 1012.2
20260503032417 1 293 3.2 3.2 0.00 0.13 0.13 81 1012.5
20260503031915 1 293 0.0 0.0 0.00 0.13 0.13 81 1012.5
20260503031412 1 293 0.0 1.6 0.00 0.13 0.13 80 1012.4
20260503030909 1 293 0.0 3.2 0.00 0.13 0.13 79 1012.4
20260503030405 1 293 0.0 0.0 0.00 0.13 0.13 79 1012.5
20260503025901 1 293 0.0 0.0 0.00 0.13 0.13 79 1012.6
20260503025359 1 293 0.0 0.0 0.00 0.13 0.13 78 1012.5
20260503024856 1 293 0.0 0.0 0.00 0.13 0.13 78 1012.6
20260503024353 1 293 1.6 1.6 0.00 0.13 0.13 78 1012.5
20260503023850 2 293 0.0 0.0 0.00 0.13 0.13 77 1012.5
20260503023347 2 293 0.0 0.0 0.00 0.13 0.13 77 1012.5
20260503022843 2 293 0.0 0.0 0.00 0.13 0.13 77 1012.6
20260503022338 2 293 0.0 0.0 0.00 0.13 0.13 76 1012.6
20260503021835 2 293 0.0 0.0 0.00 0.13 0.13 76 1012.5
20260503021331 2 293 0.0 0.0 0.00 0.13 0.13 76 1012.8
20260503020828 2 293 0.0 0.0 0.00 0.13 0.13 75 1012.5
20260503020326 2 293 0.0 0.0 0.00 0.13 0.13 74 1012.6
20260503015822 2 293 0.0 1.6 0.00 0.13 0.13 74 1012.7
20260503015319 2 293 0.0 1.6 0.00 0.13 0.13 74 1012.6
20260503014815 2 293 0.0 0.0 0.00 0.13 0.13 74 1012.6
20260503014313 2 293 0.0 0.0 0.00 0.13 0.13 73 1012.6
20260503013810 2 293 0.0 0.0 0.00 0.13 0.13 73 1012.5
20260503013308 2 293 0.0 0.0 0.00 0.13 0.13 72 1012.7
20260503012804 2 293 0.0 0.0 0.00 0.13 0.13 72 1012.5
20260503012305 2 293 0.0 1.6 0.00 0.13 0.13 72 1012.4
20260503011759 2 293 0.0 0.0 0.00 0.13 0.13 72 1012.6
20260503011255 3 293 0.0 0.0 0.00 0.13 0.13 71 1012.2
20260503010752 3 293 0.0 0.0 0.00 0.13 0.13 71 1012.5
20260503010249 3 293 0.0 0.0 0.00 0.13 0.13 70 1012.4
20260503005746 3 293 0.0 0.0 0.00 0.13 0.13 70 1012.2
20260503005243 3 293 1.6 3.2 0.00 0.13 0.13 70 1012.1
20260503004739 3 293 0.0 3.2 0.00 0.13 0.13 70 1011.9
20260503004238 3 293 1.6 3.2 0.00 0.13 0.13 70 1011.9
20260503003734 3 293 0.0 1.6 0.00 0.13 0.13 70 1012.1
20260503003232 3 293 0.0 1.6 0.00 0.13 0.13 69 1012.0
20260503002728 3 293 1.6 1.6 0.00 0.13 0.13 68 1012.0
20260503002225 3 293 1.6 3.2 0.00 0.13 0.13 68 1011.9
20260503001721 4 293 1.6 3.2 0.00 0.13 0.13 67 1011.8
20260503001218 4 293 1.6 1.6 0.00 0.13 0.13 66 1011.8
20260503000716 4 294 0.0 1.6 0.00 0.13 0.13 66 1011.9
20260503000213 4 300 3.2 4.8 0.00 0.13 0.13 65 1012.0
20260502235710 4 313 1.6 11.3 0.00 0.13 0.13 64 1011.8
20260502235208 5 314 3.2 4.8 0.00 0.13 0.13 64 1011.6
20260502234703 5 323 0.0 3.2 0.00 0.13 0.13 65 1011.7
20260502234201 5 319 3.2 4.8 0.00 0.13 0.13 64 1011.9
20260502233656 5 307 3.2 8.0 0.00 0.13 0.13 63 1011.9
20260502233154 5 307 0.0 1.6 0.00 0.13 0.13 64 1011.7
20260502232649 5 321 1.6 9.7 0.00 0.13 0.13 63 1011.7
20260502232147 5 298 1.6 8.0 0.00 0.13 0.13 63 1011.5
20260502231643 5 313 1.6 3.2 0.00 0.13 0.13 63 1011.5
20260502231141 5 314 1.6 3.2 0.00 0.13 0.13 62 1011.5
20260502230640 5 283 3.2 8.0 0.00 0.13 0.13 63 1011.5
20260502230138 5 288 8.0 11.3 0.00 0.13 0.13 62 1011.5
20260502225633 5 309 4.8 4.8 0.00 0.13 0.13 62 1011.7
20260502225131 5 298 1.6 1.6 0.00 0.13 0.13 62 1011.6
20260502224626 5 284 1.6 3.2 0.00 0.13 0.13 62 1011.7
20260502224123 6 337 6.4 9.7 0.00 0.13 0.13 61 1011.5
20260502223621 6 293 0.0 11.3 0.00 0.13 0.13 60 1011.4
20260502223120 6 292 1.6 8.0 0.00 0.13 0.13 59 1011.5
20260502222617 6 337 8.0 11.3 0.00 0.13 0.13 58 1011.3
20260502222113 6 293 1.6 4.8 0.00 0.13 0.13 58 1011.3
20260502221608 6 293 1.6 9.7 0.00 0.13 0.13 57 1011.2
20260502221106 6 262 0.0 4.8 0.00 0.13 0.13 58 1011.3
20260502220602 6 264 0.0 4.8 0.00 0.13 0.13 57 1011.4
20260502220058 7 277 1.6 3.2 0.00 0.13 0.13 57 1011.3
20260502215555 7 295 3.2 11.3 0.00 0.13 0.13 56 1011.4
20260502215052 7 281 1.6 4.8 0.00 0.13 0.13 56 1011.3
20260502214549 7 284 3.2 4.8 0.00 0.13 0.13 56 1011.3
20260502214047 7 281 1.6 9.7 0.00 0.13 0.13 55 1011.3
20260502213543 7 309 3.2 9.7 0.00 0.13 0.13 55 1011.2
20260502213041 7 288 4.8 9.7 0.00 0.13 0.13 55 1011.4
20260502212540 7 349 4.8 9.7 0.00 0.13 0.13 54 1011.5
20260502212037 7 261 4.8 11.3 0.00 0.13 0.13 53 1011.4
20260502211532 7 320 8.0 12.9 0.00 0.13 0.13 53 1011.4
20260502211030 8 242 8.0 14.5 0.00 0.13 0.13 52 1011.2
20260502210527 8 236 6.4 16.1 0.00 0.13 0.13 52 1011.3
20260502210024 8 296 11.3 25.7 0.00 0.13 0.13 52 1011.4
20260502205521 8 269 8.0 20.9 0.00 0.13 0.13 52 1011.1
20260502205018 8 304 4.8 12.9 0.00 0.13 0.13 56 1011.0
20260502204515 7 259 3.2 17.7 0.00 0.13 0.13 53 1011.2
20260502204013 7 354 4.8 11.3 0.00 0.13 0.13 53 1011.2
20260502203509 7 312 6.4 9.7 0.00 0.13 0.13 51 1011.1
20260502203006 7 263 0.0 9.7 0.00 0.13 0.13 54 1011.3
20260502202502 8 254 6.4 11.3 0.00 0.13 0.13 53 1011.3
20260502202001 7 300 8.0 14.5 0.00 0.13 0.13 55 1011.4
20260502201456 7 307 1.6 9.7 0.00 0.13 0.13 51 1011.3
20260502200953 7 313 4.8 11.3 0.00 0.13 0.13 56 1011.6
20260502200449 7 313 8.0 11.3 0.00 0.13 0.13 56 1011.8
20260502195947 7 284 3.2 9.7 0.00 0.13 0.13 55 1011.7
20260502195444 7 313 8.0 11.3 0.00 0.13 0.13 56 1011.6
20260502194940 7 302 4.8 9.7 0.00 0.13 0.13 55 1011.5
20260502194437 7 290 3.2 3.2 0.00 0.13 0.13 56 1011.8
20260502193933 7 273 1.6 11.3 0.00 0.13 0.13 56 1011.6
20260502193430 7 289 1.6 9.7 0.00 0.13 0.13 56 1011.7
20260502192925 7 211 3.2 9.7 0.00 0.13 0.13 57 1011.8
20260502192423 7 277 8.0 17.7 0.00 0.13 0.13 53 1011.9
20260502191920 7 322 8.0 12.9 0.00 0.13 0.13 59 1011.8
20260502191418 7 279 4.8 16.1 0.00 0.13 0.13 58 1012.1
20260502190915 7 261 6.4 8.0 0.00 0.13 0.13 55 1012.1
20260502190412 7 326 6.4 12.9 0.00 0.13 0.13 55 1012.1
20260502185908 7 279 3.2 8.0 0.00 0.13 0.13 57 1012.2
20260502185403 7 295 3.2 8.0 0.00 0.13 0.13 56 1012.1
20260502184901 7 310 3.2 14.5 0.00 0.13 0.13 56 1011.9
20260502184356 7 318 6.4 12.9 0.00 0.13 0.13 57 1012.0
20260502183853 7 268 1.6 9.7 0.00 0.13 0.13 57 1011.8
20260502183349 7 286 6.4 9.7 0.00 0.13 0.13 58 1011.9
20260502182844 7 270 0.0 3.2 0.00 0.13 0.13 60 1011.9
20260502182340 7 251 6.4 9.7 0.00 0.13 0.13 56 1011.9
20260502181837 7 326 6.4 12.9 0.00 0.13 0.13 56 1011.8
20260502181336 7 333 3.2 11.3 0.00 0.13 0.13 58 1011.8
20260502180833 7 322 6.4 11.3 0.00 0.13 0.13 57 1012.1
20260502180330 7 281 1.6 3.2 0.00 0.13 0.13 58 1011.9
20260502170249 7 284 1.6 8.0 0.00 0.13 0.13 63 1012.1
20260502164237 8 275 4.8 14.5 0.00 0.13 0.13 64 1012.1
20260502163732 7 258 9.7 11.3 0.00 0.13 0.13 64 1012.1
20260502163229 6 278 3.2 14.5 0.00 0.13 0.13 67 1012.1
20260502162726 6 324 14.5 20.9 0.00 0.13 0.13 65 1012.1
20260502162223 6 319 4.8 24.1 0.00 0.13 0.13 63 1012.0
20260502161720 6 321 8.0 17.7 0.00 0.13 0.13 66 1012.1
20260502161216 7 326 11.3 17.7 0.00 0.13 0.13 71 1011.7
20260502160715 7 273 8.0 16.1 0.00 0.13 0.13 68 1012.0
20260502160213 7 319 4.8 12.9 0.00 0.13 0.13 72 1012.1
20260502152127 6 314 4.8 12.9 0.00 0.13 0.13 77 1011.9
20260502151624 6 273 0.0 20.9 0.00 0.13 0.13 78 1012.0
20260502151121 6 260 4.8 14.5 0.00 0.13 0.13 81 1012.1
20260502150618 6 288 3.2 4.8 0.00 0.13 0.13 86 1012.1
20260502150114 6 297 3.2 4.8 0.00 0.13 0.13 83 1012.0
20260502130503 3 316 3.2 8.0 0.00 0.13 0.13 99 1012.4
20260502123446 3 280 0.0 3.2 0.00 0.13 0.13 99 1012.5
20260502122943 3 284 3.2 4.8 0.00 0.13 0.13 99 1012.4
20260502122439 3 286 3.2 3.2 0.00 0.13 0.13 99 1012.5
20260502121937 3 284 3.2 4.8 0.00 0.13 0.13 99 1012.5
20260502121434 3 296 0.0 3.2 0.18 0.13 0.13 99 1012.4
20260502120932 3 25 11.3 14.5 0.18 0.13 0.13 99 1012.2
20260502120428 3 278 1.6 8.0 0.00 0.10 0.10 99 1012.4
20260502115925 3 302 3.2 4.8 0.00 0.10 0.10 99 1012.5
20260502115422 3 309 0.0 8.0 0.00 0.10 0.10 99 1012.5
20260502114918 2 302 3.2 4.8 0.00 0.10 0.10 99 1012.4
20260502114415 2 311 1.6 3.2 0.00 0.10 0.10 99 1012.2
20260502113912 2 311 0.0 3.2 0.00 0.10 0.10 99 1012.4
20260502113410 2 312 1.6 1.6 0.00 0.10 0.10 99 1012.2
20260502112909 2 312 0.0 1.6 0.00 0.10 0.10 99 1012.1
20260502112405 2 313 1.6 3.2 0.00 0.10 0.10 99 1012.1
20260502111903 2 313 0.0 3.2 0.00 0.10 0.10 99 1012.0
20260502111400 2 314 1.6 3.2 0.00 0.10 0.10 99 1011.9
20260502110857 2 303 3.2 3.2 0.00 0.10 0.10 99 1012.1
20260502110355 2 313 1.6 8.0 0.00 0.10 0.10 99 1012.4
20260502105852 2 313 4.8 4.8 0.00 0.10 0.10 99 1012.0
20260502105349 2 317 3.2 8.0 0.00 0.10 0.10 99 1012.2
20260502104847 2 302 1.6 3.2 0.00 0.10 0.10 99 1012.0
20260502104344 2 303 3.2 8.0 0.00 0.10 0.10 99 1011.7
20260502103841 2 311 3.2 4.8 0.00 0.10 0.10 99 1011.8
20260502103339 2 305 0.0 4.8 0.00 0.10 0.10 99 1012.1
20260502102836 2 306 1.6 11.3 0.00 0.10 0.10 99 1012.0
20260502102332 2 296 0.0 4.8 0.00 0.10 0.10 99 1011.8
20260502101830 2 296 0.0 3.2 0.00 0.10 0.10 99 1011.7
20260502101328 2 298 4.8 11.3 0.00 0.10 0.10 99 1011.6
20260502100826 2 307 1.6 3.2 0.00 0.10 0.10 99 1011.8
20260502100325 2 312 4.8 8.0 0.00 0.10 0.10 99 1011.6
20260502091258 2 306 1.6 1.6 0.00 0.10 0.10 99 1011.3
20260502090756 2 300 1.6 4.8 0.00 0.10 0.10 99 1011.3
20260502090252 2 300 3.2 4.8 0.00 0.10 0.10 99 1011.2
20260502071153 4 263 0.0 1.6 0.13 0.05 0.05 99 1010.5
20260502070651 4 263 0.0 1.6 0.13 0.05 0.05 99 1010.5
20260502070149 4 268 4.8 4.8 0.00 0.03 0.03 99 1010.5
20260502065647 4 262 1.6 4.8 0.00 0.03 0.03 99 1010.8
20260502065144 4 245 1.6 4.8 0.00 0.03 0.03 99 1010.7
20260502064643 4 282 0.0 9.7 0.00 0.03 0.03 99 1010.4
20260502064140 4 274 1.6 3.2 0.00 0.03 0.03 99 1010.8
20260502063637 4 274 0.0 1.6 0.00 0.03 0.03 99 1010.8
20260502063135 4 274 0.0 1.6 0.18 0.03 0.03 99 1010.8
20260502062632 4 273 1.6 3.2 0.00 0.00 0.00 99 1010.8
20260502062130 4 274 1.6 1.6 0.00 0.00 0.00 99 1011.0
20260502061628 4 274 0.0 1.6 0.00 0.00 0.00 99 1010.9
20260502061125 4 284 0.0 4.8 0.00 0.00 0.00 99 1010.9
20260502060625 4 275 4.8 8.0 0.00 0.00 0.00 99 1011.0
20260502060122 4 262 0.0 8.0 0.00 0.00 0.00 99 1011.0
20260502055620 4 262 0.0 4.8 0.00 0.00 0.00 99 1011.0
20260502055118 4 245 1.6 3.2 0.00 0.00 0.00 99 1010.9
20260502054617 4 244 1.6 3.2 0.00 0.00 0.00 99 1010.9
20260502054113 4 244 0.0 0.0 0.00 0.00 0.00 99 1011.2
20260502053610 4 244 0.0 1.6 0.00 0.00 0.00 99 1011.1
20260502053108 4 244 0.0 0.0 0.00 0.00 0.00 99 1011.1
20260502052606 4 244 0.0 0.0 0.00 0.00 0.00 99 1011.0
20260502052104 4 244 0.0 0.0 0.00 0.00 0.00 99 1010.5
20260502051602 4 244 0.0 0.0 0.00 0.00 0.00 99 1010.9